Torna al catalogo

SCOUT G-1 DEB

AttivoPO
NORAD 15950·DEBRIS·🇺🇸 United States

Lanciato Aug 3, 1985 da Vandenberg Space Force Base

Loading…

Prossimi Passaggi (prossime 24 ore)

TLE

AggiornatoSource: Space-Track

Epoca: Sep 14, 2026, 12:42 UTC

1 15950U 85066D   26257.52951509  .00003943  00000-0  18431-2 0  9991
2 15950  89.8373 292.2880 0074830 276.2455  83.0215 14.18729009 55723

Traccia SCOUT G-1 DEB in tempo reale con AllMySat

Download on the App Store